FW9068 Weather Reports


time (UTC)temp
C
wind
direction
speed
KPH
gust
KPH
rain 1hr
cm
rain 24hr
cm
rain mn
cm
humidity
%
barometer
mb
20260505230051 21 61 4.8 12.9 0.00 0.00 0.00 56 1005.1
20260505224548 21 106 4.8 9.7 0.00 0.00 0.00 58 1004.9
20260505223102 20 22 4.8 14.5 0.00 0.00 0.00 58 1004.6
20260505221606 20 29 6.4 12.9 0.00 0.00 0.00 58 1004.5
20260505220137 20 127 4.8 24.1 0.00 0.00 0.00 58 1004.4
20260505214604 20 72 6.4 14.5 0.00 0.00 0.00 59 1004.4
20260505213049 20 75 8.0 16.1 0.00 0.00 0.00 59 1004.4
20260505211606 20 91 6.4 16.1 0.00 0.00 0.00 58 1004.4
20260505210052 20 75 4.8 12.9 0.00 0.00 0.00 58 1004.3
20260505204551 21 95 6.4 16.1 0.00 0.00 0.00 58 1004.4
20260505203052 21 65 6.4 14.5 0.00 0.00 0.00 56 1004.5
20260505201559 21 137 4.8 12.9 0.00 0.00 0.00 56 1004.5
20260505200101 21 25 4.8 16.1 0.00 0.00 0.00 55 1004.7
20260505194555 21 40 6.4 14.5 0.00 0.00 0.00 56 1004.7
20260505193046 21 130 4.8 14.5 0.00 0.00 0.00 58 1005.0
20260505191546 22 183 6.4 16.1 0.00 0.00 0.00 57 1005.3
20260505190100 22 36 4.8 12.9 0.00 0.00 0.00 57 1005.7
20260505184548 21 106 4.8 11.3 0.00 0.00 0.00 58 1005.7
20260505183050 21 97 6.4 17.7 0.00 0.00 0.00 57 1005.9
20260505181545 22 53 6.4 12.9 0.00 0.00 0.00 56 1006.2
20260505180052 21 13 6.4 16.1 0.00 0.00 0.00 57 1006.1
20260505174553 21 103 4.8 12.9 0.00 0.00 0.00 57 1006.5
20260505173050 22 108 8.0 17.7 0.00 0.00 0.00 54 1006.7
20260505171548 22 36 4.8 11.3 0.00 0.00 0.00 54 1006.9
20260505170047 23 27 4.8 11.3 0.00 0.00 0.00 51 1007.1
20260505164607 25 145 4.8 12.9 0.00 0.00 0.00 48 1007.1
20260505163053 25 37 3.2 11.3 0.00 0.00 0.00 48 1007.3
20260505161557 26 128 1.6 12.9 0.00 0.00 0.00 45 1007.5
20260505153049 25 91 6.4 12.9 0.00 0.00 0.00 46 1008.1
20260505151550 24 112 4.8 14.5 0.00 0.00 0.00 48 1008.3
20260505140112 21 123 0.0 9.7 0.00 0.00 0.00 55 1008.6
20260505124551 18 106 3.2 9.7 0.00 0.00 0.00 59 1008.9
20260505123053 18 117 0.0 6.4 0.00 0.00 0.00 61 1008.9
20260505121550 17 97 0.0 4.8 0.00 0.00 0.00 65 1008.5
20260505120053 16 0 1.6 8.0 0.00 0.00 0.00 67 1008.5
20260505114549 15 117 0.0 6.4 0.00 0.00 0.00 69 1008.7
20260505113048 13 0 0.0 3.2 0.00 0.00 0.00 73 1008.8
20260505111548 12 0 0.0 1.6 0.00 0.00 0.00 77 1008.9
20260505101548 8 0 0.0 0.0 0.00 0.00 0.00 85 1008.9
20260505100052 9 0 0.0 0.0 0.00 0.00 0.00 83 1008.9
20260505094554 9 0 0.0 0.0 0.00 0.00 0.00 82 1008.8
20260505093053 10 0 0.0 0.0 0.00 0.00 0.00 80 1008.7
20260505091604 10 0 0.0 0.0 0.00 0.00 0.00 79 1008.8
20260505090054 10 0 0.0 0.0 0.00 0.00 0.00 78 1008.8
20260505084550 10 0 0.0 0.0 0.00 0.00 0.00 78 1008.8
20260505083048 10 0 0.0 0.0 0.00 0.00 0.00 77 1009.0
20260505081553 10 0 0.0 0.0 0.00 0.00 0.00 76 1009.0
20260505080100 11 0 0.0 0.0 0.00 0.00 0.00 75 1009.2
20260505074549 11 0 0.0 1.6 0.00 0.00 0.00 75 1009.2
20260505073053 11 0 0.0 0.0 0.00 0.00 0.00 73 1009.2
20260505071554 11 0 0.0 1.6 0.00 0.00 0.00 72 1009.2
20260505070055 11 0 0.0 1.6 0.00 0.00 0.00 72 1009.1
20260505064551 12 0 0.0 0.0 0.00 0.00 0.00 70 1009.0
20260505063112 12 0 0.0 0.0 0.00 0.00 0.00 69 1009.1
20260505061556 12 0 0.0 1.6 0.00 0.00 0.00 67 1009.0
20260505060059 12 105 0.0 8.0 0.00 0.00 0.00 67 1009.2
20260505054607 13 0 0.0 1.6 0.00 0.00 0.00 66 1009.3
20260505053059 13 117 0.0 1.6 0.00 0.00 0.00 64 1009.2
20260505051551 13 0 0.0 6.4 0.00 0.00 0.00 63 1009.3
20260505041557 14 0 0.0 3.2 0.00 0.00 0.00 60 1009.2
20260505040056 15 0 0.0 4.8 0.00 0.00 0.00 59 1009.1
20260505034549 15 0 1.6 8.0 0.00 0.00 0.00 57 1009.0
20260505033047 15 0 0.0 4.8 0.00 0.00 0.00 57 1009.1
20260505031600 15 115 1.6 9.7 0.00 0.00 0.00 56 1008.9
20260505030109 15 112 0.0 4.8 0.00 0.00 0.00 56 1008.9
20260505024556 16 0 0.0 6.4 0.00 0.00 0.00 55 1008.8
20260505023047 16 103 3.2 8.0 0.00 0.00 0.00 53 1008.9
20260505021544 16 122 1.6 9.7 0.00 0.00 0.00 53 1008.9
20260505020051 16 0 1.6 9.7 0.00 0.00 0.00 53 1008.6
20260505014604 16 91 1.6 8.0 0.00 0.00 0.00 53 1008.5
20260505013050 15 91 0.0 3.2 0.00 0.00 0.00 55 1008.2
20260505011556 15 118 0.0 6.4 0.00 0.00 0.00 59 1007.8
20260505010048 16 0 0.0 3.2 0.00 0.00 0.00 53 1007.2
20260505004550 16 0 0.0 0.0 0.00 0.00 0.00 49 1007.0
20260505003047 16 0 0.0 1.6 0.00 0.00 0.00 48 1006.8
20260505001547 17 0 0.0 0.0 0.00 0.00 0.00 44 1006.5
20260505000105 17 0 0.0 0.0 0.00 0.00 0.00 43 1006.5
20260504234551 18 0 0.0 0.0 0.00 0.00 0.00 42 1006.3
20260504233104 19 0 0.0 1.6 0.00 0.00 0.00 41 1006.0
20260504231549 20 0 0.0 3.2 0.00 0.00 0.00 39 1005.7